Dewpoint
38 29 21 31 29 28 28 27 26 27 29 29 27 27 27 28 29 29 27 28 27 26 28 30 33 34 34 33 33 33 45 55 55 55 55 54 53 54 54 54 53 52 50 48
29 21 30 33 30 29 28 27 26 28 29 28 27 27 27 28 28 27 26 26 25 26 29 35 36 36 36 35 35 36 50 55 54 56 55 54 54 53 53 53 50 48 48 47
27 24 32 30 29 28 28 27 26 24 29 29 27 25 24 25 27 26 26 26 28 28 33 35 35 35 35 34 34 35 47 53 54 55 54 54 53 52 50 50 48 46 45 44
30 31 29 29 29 30 24 29 29 29 27 22 28 20 23 25 25 22 26 31 32 33 33 34 34 34 35 35 36 36 43 52 54 54 54 53 52 51 50 47 46 44 41 42
13 29 30 30 28 30 23 30 29 29 27 27 25 24 19 24 15 19 28 29 29 31 32 31 33 33 33 35 37 39 40 51 53 54 53 52 51 51 50 47 45 44 41 38
32 34 32 30 32 32 32 29 25 27 25 20 21 20 15 17 15 22 28 28 28 29 29 30 31 33 33 36 40 41 42 49 52 53 53 52 51 50 48 47 45 45 44 41
26 29 33 33 30 28 27 24 12 7 9 8 20 18 16 18 19 25 27 27 28 30 31 32 36 38 39 39 42 43 43 46 51 52 51 51 51 49 48 46 45 43 42 40
21 3 29 32 28 24 26 24 14 10 10 13 21 19 15 21 22 28 28 29 30 31 33 37 39 40 42 42 44 45 47 49 50 50 50 50 49 49 47 46 45 43 40 39
17 19 27 32 30 28 25 24 24 22 23 20 19 20 18 18 21 25 24 30 30 34 37 39 40 44 46 47 46 47 49 49 49 50 49 49 48 47 45 44 43 42 41 41
24 18 23 25 29 28 25 26 21 22 15 13 15 16 15 15 17 21 26 29 34 37 38 40 42 45 47 47 47 48 49 48 49 49 49 48 47 46 45 43 42 42 42 43
27 24 20 24 23 22 26 25 26 26 23 18 16 15 17 17 19 23 26 30 37 37 38 40 43 46 48 48 48 49 49 50 49 49 49 47 46 46 45 43 42 41 42 42
27 26 24 22 22 25 24 24 26 21 17 24 22 18 20 19 21 24 26 33 38 38 39 43 47 45 46 47 48 49 49 49 50 49 48 47 46 45 44 44 43 44 43 42
26 24 18 15 14 21 21 21 21 22 23 20 19 18 20 20 22 21 25 35 37 37 40 45 46 44 48 48 48 49 50 50 50 49 47 47 46 45 44 45 44 43 42 40
30 26 21 18 17 17 20 23 24 23 22 20 20 20 21 21 21 20 29 36 37 37 42 45 42 43 45 46 47 48 49 50 49 48 47 46 46 45 45 44 43 40 37 31
30 25 26 25 25 26 26 26 25 24 23 22 19 19 19 22 20 21 32 39 37 38 41 44 45 45 46 46 46 46 48 48 48 47 46 46 45 43 41 39 35 30 27 24
30 29 30 28 28 27 25 23 23 21 20 20 21 21 23 20 19 24 36 38 37 38 40 44 46 45 45 45 45 44 44 44 42 41 42 43 41 40 38 33 29 25 24 24
29 30 28 23 23 23 20 17 18 20 20 19 16 17 18 18 20 25 37 37 37 38 40 44 45 45 45 45 44 42 42 41 40 38 37 36 36 36 35 31 28 25 25 27
25 25 28 24 24 17 18 20 20 19 18 19 18 18 17 19 23 35 37 38 38 39 40 42 45 45 45 45 45 44 43 41 39 37 34 33 31 30 28 27 26 26 26 27
27 24 24 22 21 20 21 17 17 16 17 17 16 19 19 22 33 35 36 39 40 40 41 43 45 46 46 45 44 40 39 39 38 37 35 33 30 26 24 24 25 26 26 27
26 26 25 24 21 16 16 19 19 16 15 15 20 18 20 23 18 23 35 40 40 41 43 42 43 45 44 43 41 40 39 38 36 36 36 34 31 24 22 23 24 25 25 26
21 25 24 24 23 23 24 23 20 16 14 20 19 20 23 21 24 27 39 40 40 41 42 42 41 41 42 41 40 39 38 36 36 35 35 34 31 23 21 22 23 23 23 22
16 17 21 25 23 19 23 21 19 17 19 20 20 22 24 25 28 37 39 39 39 40 41 41 40 40 41 40 39 37 35 35 35 33 33 32 26 20 21 21 21 20 20 20
18 18 18 23 22 23 23 22 21 20 20 20 20 21 26 26 29 37 36 39 39 40 40 41 40 40 40 40 37 35 35 34 33 30 24 22 19 19 19 19 18 18 18 18
22 23 21 21 21 23 23 24 25 24 21 22 21 23 26 26 31 35 36 40 39 39 40 41 40 38 38 38 37 35 34 32 29 24 21 18 17 16 16 17 17 17 17 18
23 25 22 22 23 23 22 22 22 23 23 23 21 23 26 28 30 35 35 37 39 39 41 41 40 38 37 36 35 35 33 30 28 21 17 17 19 15 16 17 17 16 17 18
28 26 24 22 24 22 21 21 21 22 22 22 21 24 28 28 29 35 34 35 39 39 40 39 38 36 34 35 34 33 29 26 20 17 17 18 16 17 18 21 26 27 22 24
Wind_Speed
2 3 3 2 4 5 5 9 19 21 20 17 13 22 36 33 26 21 20 20 22 21 15 5 5 5 5 4 7 11 12 14 14 15 13 10 11 14 13 13 15 16 15 14
2 5 5 3 4 7 7 13 19 15 5 14 24 29 27 22 18 17 20 22 22 12 2 3 6 8 8 9 9 5 11 18 18 17 16 9 12 8 13 14 14 16 17 19
4 3 2 6 4 7 10 10 10 17 17 12 15 11 10 21 11 13 18 13 7 2 2 7 11 12 13 15 19 14 14 20 20 19 15 11 11 11 8 12 13 13 18 17
8 4 2 4 8 4 8 4 12 15 17 10 8 12 22 10 21 17 8 6 7 10 10 10 15 19 21 22 23 26 18 24 25 22 23 25 21 18 11 14 13 15 15 15
3 2 6 6 7 8 9 6 17 16 14 7 1 3 14 13 20 10 4 7 9 10 13 21 22 23 27 24 26 25 24 26 27 29 27 27 22 19 17 18 19 15 13 15
11 4 4 5 4 8 10 10 6 4 3 5 3 0 20 11 7 8 5 11 15 18 23 25 29 28 29 25 25 23 23 25 29 31 30 29 27 21 19 18 20 16 13 11
5 4 3 4 5 1 5 8 8 5 4 9 6 9 19 17 17 12 8 17 20 20 23 29 30 30 29 27 23 21 22 27 29 31 30 29 29 27 27 25 21 19 15 13
3 6 6 5 6 3 3 3 1 6 8 20 18 11 11 11 6 9 10 16 15 26 31 33 27 29 28 28 24 17 18 23 26 28 26 25 26 23 23 24 21 18 17 14
4 5 2 8 4 4 3 5 3 4 4 7 6 10 21 14 2 8 20 19 24 27 30 27 27 25 22 16 12 13 18 19 21 23 24 25 24 23 20 20 20 18 16 14
2 9 4 3 2 6 5 6 2 1 7 10 10 14 20 24 22 15 20 20 22 21 26 28 25 23 11 7 4 9 14 18 21 22 23 23 23 22 22 22 22 21 18 15
3 5 4 3 6 8 4 4 2 2 5 6 11 18 12 15 28 20 18 18 25 22 23 25 22 10 5 5 5 7 12 16 18 19 21 23 22 22 23 23 22 20 20 21
6 3 7 11 18 5 8 11 10 6 7 9 8 41 21 19 7 15 18 19 23 21 23 22 12 11 7 5 8 10 12 16 20 19 21 22 24 24 24 23 23 21 20 17
4 3 11 14 3 2 1 1 3 5 2 22 20 25 5 22 32 21 19 18 23 20 20 14 11 12 3 3 7 10 14 16 19 20 22 25 25 24 26 25 23 20 20 19
4 8 15 20 17 12 21 20 21 17 17 27 33 48 48 38 24 23 15 17 18 19 16 11 11 10 6 3 1 6 10 15 20 24 26 25 26 26 24 25 24 20 19 20
3 12 11 17 19 21 27 28 29 24 35 24 47 34 43 33 24 19 12 14 18 19 16 12 8 7 7 7 9 9 9 19 22 25 23 23 26 26 25 22 21 21 20 19
9 6 7 16 18 24 29 27 35 32 34 30 37 42 35 16 13 15 11 12 16 14 17 10 4 5 6 8 12 15 14 20 29 25 28 24 24 24 24 20 21 23 21 20
5 4 4 24 6 14 24 19 5 8 11 14 19 25 14 17 18 18 10 11 13 14 17 12 2 6 7 7 15 20 20 22 28 27 23 23 22 22 21 22 23 21 22 21
17 15 9 16 6 26 12 22 26 22 28 19 23 22 13 16 14 12 6 11 12 13 13 13 3 11 11 13 14 19 20 22 23 23 21 22 23 21 21 23 22 21 21 20
26 17 10 14 16 23 20 16 5 5 24 14 10 12 15 12 4 9 6 8 9 8 10 9 3 10 11 17 14 23 24 20 21 19 19 19 22 22 21 23 23 20 21 18
9 23 16 7 8 13 5 2 3 5 24 3 2 12 11 11 16 5 11 10 10 8 5 4 6 12 17 17 21 24 21 20 18 17 17 18 19 18 21 21 21 16 18 19
5 5 22 20 15 14 11 12 2 3 8 4 4 3 8 6 7 9 7 8 7 6 8 10 11 11 14 19 22 21 18 18 17 16 18 18 14 15 17 19 18 18 18 17
19 11 12 10 12 18 5 4 8 4 7 6 5 3 7 8 8 3 5 6 6 7 10 11 13 13 11 17 23 19 19 15 18 19 19 18 17 16 15 20 17 17 19 19
18 22 15 14 11 9 6 11 11 9 12 8 5 3 5 8 5 2 1 3 4 6 9 9 14 14 12 11 20 20 17 19 19 18 19 19 16 16 17 21 19 17 15 17
5 10 18 22 22 33 30 27 20 18 15 9 6 6 4 8 6 5 4 4 5 5 9 10 13 14 14 13 15 19 18 18 19 19 16 17 19 17 15 14 14 16 17 16
10 4 11 21 23 26 29 21 24 19 13 8 5 5 6 6 7 9 7 7 7 9 7 7 11 12 13 14 16 15 16 17 18 17 16 16 16 16 16 13 15 15 8 14
14 18 15 22 24 18 25 18 7 10 9 6 3 4 4 7 8 8 10 9 9 11 12 11 10 12 12 14 15 15 15 16 18 17 16 16 17 16 15 17 13 7 10 10
Wind_Direction
355 0 262 206 197 241 258 274 287 283 286 306 289 298 294 300 304 293 287 289 287 286 283 273 3 14 354 343 284 240 196 172 170 173 163 157 169 165 157 157 164 154 135 150
341 267 213 225 241 267 283 292 294 295 278 307 301 301 293 296 288 290 300 305 303 278 207 29 9 0 1 337 332 289 207 177 187 179 182 170 168 173 167 155 147 143 153 152
245 250 284 281 276 292 288 267 281 286 319 278 332 293 322 314 299 314 320 323 13 265 327 323 329 322 311 308 300 284 216 193 197 179 149 130 122 125 131 147 146 146 150 163
253 269 233 274 281 230 298 245 268 293 325 316 35 295 308 294 308 311 338 25 16 351 331 309 299 293 282 275 271 263 233 201 198 184 167 168 179 179 178 162 150 144 149 162
277 262 253 269 254 171 252 312 293 294 287 318 312 259 275 297 302 308 276 344 328 314 300 293 279 276 275 273 265 248 235 205 197 190 183 174 181 185 157 144 145 147 139 151
256 296 263 231 264 234 290 316 337 55 65 284 211 47 286 285 250 306 307 321 318 301 299 297 294 289 281 282 261 243 230 207 195 190 181 178 178 168 153 159 155 155 153 150
314 240 245 187 283 327 26 5 330 328 323 272 151 325 248 275 262 268 287 301 289 288 294 301 302 298 298 285 260 241 228 212 191 190 178 180 171 163 166 166 163 157 155 158
287 304 203 182 216 260 290 165 172 287 303 294 297 231 269 259 262 215 274 276 310 317 305 309 303 297 291 278 262 239 210 192 186 181 179 173 165 169 168 166 160 161 161 151
272 263 301 210 209 174 165 221 191 262 262 286 259 282 297 287 252 275 314 326 317 314 323 310 308 309 304 302 275 192 174 174 168 168 171 162 160 156 158 155 153 149 143 137
257 291 263 292 174 232 222 159 282 359 303 299 282 278 255 296 304 314 318 315 311 316 327 319 317 321 322 4 63 146 150 160 162 165 165 159 155 152 150 148 145 143 137 130
197 208 267 305 221 202 174 218 168 239 190 258 299 286 244 285 308 328 316 307 326 315 320 315 310 328 332 94 100 123 142 146 153 150 154 153 147 147 149 148 138 135 137 148
222 236 258 249 267 245 236 233 189 246 256 231 275 281 282 278 296 323 318 322 322 311 323 323 322 311 282 179 158 160 157 162 158 157 154 149 144 146 142 137 141 141 136 149
191 254 308 319 33 41 86 153 253 265 285 267 276 275 269 298 316 319 317 315 314 318 325 336 346 330 3 127 160 171 164 163 158 152 148 141 141 141 134 129 132 135 138 138
237 224 242 258 259 273 282 279 273 263 269 275 252 274 287 293 318 314 315 299 325 318 324 332 351 353 4 341 133 133 163 162 154 145 142 139 139 130 125 127 128 129 135 125
229 258 242 254 271 280 278 280 277 254 252 251 271 278 279 291 310 299 287 311 334 324 335 339 356 13 34 80 102 89 137 128 130 131 124 121 118 112 111 115 128 125 120 115
336 290 307 286 275 274 281 280 272 270 265 255 261 269 276 286 285 298 308 322 321 318 320 339 359 81 84 89 88 86 87 111 106 99 103 104 106 110 112 117 114 112 113 113
266 277 281 283 259 304 292 273 274 282 251 254 270 277 327 318 320 313 310 316 323 315 320 331 320 130 83 86 107 98 89 90 93 95 97 102 108 112 122 122 117 118 112 110
246 255 257 287 319 281 254 307 296 270 273 254 264 286 295 304 306 266 310 314 320 318 326 333 151 115 118 105 106 104 93 93 98 99 103 108 109 113 122 120 117 116 118 119
217 217 234 251 250 280 300 294 346 347 304 269 262 306 309 317 310 287 315 319 311 311 320 303 136 117 119 125 97 93 91 90 95 104 106 110 114 115 118 121 123 122 120 116
213 210 212 223 241 262 235 359 33 339 295 210 270 312 314 338 339 315 332 349 348 332 352 66 106 122 128 114 107 107 112 110 105 111 110 108 114 123 120 119 122 122 121 117
236 189 218 231 248 265 253 264 308 238 275 316 328 289 298 305 264 302 338 355 3 7 77 84 79 99 111 116 112 108 111 111 116 109 107 109 107 110 116 114 115 114 112 118
228 233 220 219 241 269 246 92 200 257 309 296 320 295 291 285 288 301 347 9 29 51 73 88 91 89 98 119 116 115 112 116 116 117 118 123 133 136 123 123 123 129 131 130
237 225 230 212 223 253 200 255 257 269 276 292 302 266 266 286 261 224 330 45 63 70 82 87 101 97 84 107 122 117 122 122 122 124 126 129 126 129 136 132 133 132 130 133
234 222 234 254 260 266 271 270 260 258 252 276 270 265 236 272 240 205 177 150 131 111 109 109 109 107 102 102 110 124 128 129 130 130 133 131 131 129 127 125 132 141 147 146
242 164 234 254 256 273 279 270 266 260 222 238 245 235 247 256 234 211 188 178 165 145 132 117 124 121 117 115 119 130 135 138 138 133 133 134 132 135 132 129 149 152 149 156
216 226 230 253 247 252 270 259 267 223 222 228 225 230 224 241 243 205 196 180 174 161 151 140 138 132 130 129 133 142 150 154 143 140 144 145 140 135 136 135 117 109 140 145